When you browse on this site, cookies collect data to enhance your experience and personalize the content and advertising you see.
Visit our Privacy Policy to learn more. By continuing to use the site, you agree to this use of cookies and data.
  • In Portugal
  • List of Countries
  • For 7 days
  • Water Temperature
  • Weather Map
  • Weather Widgets
  • user-avatar
    Login

    Hourly Weather Zabiele

    Today, 26 August, Monday

    Time Temperature Precipitation Wind Pressure Humidity
    00:00 +19°C° 0 mm 3 mps 758 mmHg 69%
    01:00 +18°C° 0 mm 3 mps 758 mmHg 71%
    02:00 +18°C° 0 mm 3 mps 758 mmHg 73%
    03:00 +18°C° 0 mm 3 mps 758 mmHg 75%
    04:00 +17°C° 0 mm 3 mps 758 mmHg 76%
    05:00 +18°C° 0 mm 3 mps 758 mmHg 74%
    06:00 +19°C° 0 mm 4 mps 758 mmHg 72%
    07:00 +20°C° 0 mm 4 mps 758 mmHg 70%
    08:00 +21°C° 0 mm 4 mps 758 mmHg 65%
    09:00 +23°C° 0 mm 4 mps 758 mmHg 60%
    10:00 +26°C° 0 mm 5 mps 758 mmHg 55%
    11:00 +27°C° 0 mm 5 mps 758 mmHg 52%
    12:00 +28°C° 0 mm 5 mps 757 mmHg 49%
    13:00 +29°C° 0 mm 5 mps 757 mmHg 46%
    14:00 +29°C° 0 mm 5 mps 757 mmHg 48%
    15:00 +29°C° 0 mm 5 mps 757 mmHg 49%
    16:00 +28°C° 0 mm 5 mps 756 mmHg 50%
    17:00 +27°C° 0 mm 4 mps 756 mmHg 56%
    18:00 +25°C° 0 mm 4 mps 756 mmHg 63%
    19:00 +22°C° 0 mm 4 mps 756 mmHg 69%
    20:00 +22°C° 0 mm 4 mps 756 mmHg 71%
    21:00 +21°C° 0 mm 4 mps 756 mmHg 72%
    22:00 +20°C° 0 mm 4 mps 757 mmHg 74%
    23:00 +20°C° 0 mm 3 mps 757 mmHg 76%

    Tomorrow, 27 August, Tuesday

    Time Temperature Precipitation Wind Pressure Humidity
    00:00 +19°C° 0 mm 3 mps 757 mmHg 78%
    01:00 +19°C° 0 mm 3 mps 757 mmHg 79%
    02:00 +19°C° 0 mm 3 mps 757 mmHg 81%
    03:00 +18°C° 0 mm 3 mps 756 mmHg 82%
    04:00 +18°C° 0 mm 3 mps 756 mmHg 83%
    05:00 +19°C° 0 mm 4 mps 756 mmHg 80%
    06:00 +20°C° 0 mm 4 mps 757 mmHg 77%
    07:00 +21°C° 0 mm 4 mps 757 mmHg 75%
    08:00 +23°C° 0 mm 5 mps 757 mmHg 68%
    09:00 +26°C° 0 mm 5 mps 757 mmHg 62%
    10:00 +27°C° 0 mm 5 mps 757 mmHg 56%
    11:00 +29°C° 0 mm 5 mps 757 mmHg 52%
    12:00 +30°C° 0 mm 5 mps 756 mmHg 48%
    13:00 +32°C° 0 mm 5 mps 756 mmHg 44%
    14:00 +32°C° 0 mm 5 mps 756 mmHg 45%
    15:00 +32°C° 0 mm 5 mps 756 mmHg 46%
    16:00 +32°C° 0 mm 5 mps 755 mmHg 47%
    17:00 +29°C° 0 mm 5 mps 755 mmHg 54%
    18:00 +27°C° 0 mm 4 mps 755 mmHg 60%
    19:00 +25°C° 0 mm 4 mps 756 mmHg 67%
    20:00 +23°C° 0 mm 4 mps 756 mmHg 67%
    21:00 +23°C° 0 mm 4 mps 756 mmHg 68%
    22:00 +22°C° 0 mm 4 mps 756 mmHg 69%
    23:00 +21°C° 0 mm 4 mps 756 mmHg 71%

    Day after tomorrow, 28 August, Wednesday

    Time Temperature Precipitation Wind Pressure Humidity
    00:00 +21°C° 0 mm 4 mps 756 mmHg 72%
    01:00 +20°C° 0 mm 4 mps 756 mmHg 73%
    02:00 +20°C° 0 mm 4 mps 756 mmHg 76%
    03:00 +19°C° 0 mm 4 mps 756 mmHg 78%
    04:00 +19°C° 0 mm 4 mps 755 mmHg 81%
    05:00 +19°C° 0 mm 4 mps 755 mmHg 77%
    06:00 +20°C° 0 mm 5 mps 755 mmHg 73%
    07:00 +21°C° 0 mm 5 mps 755 mmHg 69%
    08:00 +23°C° 0 mm 5 mps 755 mmHg 64%
    09:00 +26°C° 0 mm 5 mps 755 mmHg 58%
    10:00 +28°C° 0 mm 6 mps 755 mmHg 53%
    11:00 +29°C° 0 mm 6 mps 755 mmHg 49%
    12:00 +30°C° 0 mm 6 mps 754 mmHg 46%
    13:00 +32°C° 0 mm 6 mps 754 mmHg 42%
    14:00 +32°C° 0 mm 5 mps 754 mmHg 43%
    15:00 +32°C° 0 mm 5 mps 754 mmHg 43%
    16:00 +30°C° 0 mm 5 mps 753 mmHg 44%
    17:00 +29°C° 0 mm 5 mps 753 mmHg 50%
    18:00 +27°C° 0 mm 5 mps 753 mmHg 55%
    19:00 +25°C° 0 mm 5 mps 753 mmHg 61%
    20:00 +25°C° 0.1 mm 5 mps 753 mmHg 63%
    21:00 +23°C° 0.1 mm 5 mps 753 mmHg 65%
    22:00 +22°C° 0.1 mm 5 mps 753 mmHg 67%
    23:00 +22°C° 0.1 mm 5 mps 753 mmHg 70%

    29 August, Thursday

    Time Temperature Precipitation Wind Pressure Humidity
    00:00 +21°C° 0.1 mm 5 mps 753 mmHg 72%
    01:00 +21°C° 0.1 mm 5 mps 753 mmHg 74%
    02:00 +20°C° 0.1 mm 5 mps 753 mmHg 75%
    03:00 +20°C° 0.1 mm 5 mps 753 mmHg 76%
    04:00 +19°C° 0.1 mm 5 mps 753 mmHg 77%
    05:00 +20°C° 0.1 mm 5 mps 753 mmHg 75%
    06:00 +20°C° 0.1 mm 5 mps 753 mmHg 73%
    07:00 +21°C° 0.1 mm 5 mps 752 mmHg 71%
    08:00 +22°C° 0.1 mm 5 mps 752 mmHg 66%
    09:00 +25°C° 0.1 mm 5 mps 753 mmHg 61%
    10:00 +27°C° 0.1 mm 5 mps 753 mmHg 55%
    11:00 +28°C° 0 mm 5 mps 752 mmHg 52%
    12:00 +29°C° 0 mm 5 mps 752 mmHg 49%
    13:00 +30°C° 0 mm 5 mps 752 mmHg 47%
    14:00 +30°C° 0 mm 5 mps 752 mmHg 47%
    15:00 +30°C° 0 mm 4 mps 751 mmHg 47%
    16:00 +30°C° 0 mm 4 mps 751 mmHg 48%
    17:00 +29°C° 0.3 mm 4 mps 751 mmHg 55%
    18:00 +27°C° 0.3 mm 4 mps 751 mmHg 62%
    19:00 +25°C° 0.3 mm 4 mps 751 mmHg 68%
    20:00 +23°C° 0.7 mm 4 mps 751 mmHg 73%
    21:00 +22°C° 0.7 mm 4 mps 751 mmHg 78%
    22:00 +21°C° 0.7 mm 4 mps 752 mmHg 83%
    23:00 +21°C° 0.2 mm 4 mps 751 mmHg 86%

    30 August, Friday

    Time Temperature Precipitation Wind Pressure Humidity
    00:00 +20°C° 0.2 mm 3 mps 751 mmHg 88%
    01:00 +20°C° 0.2 mm 3 mps 751 mmHg 91%
    02:00 +20°C° 0.2 mm 3 mps 751 mmHg 91%
    03:00 +20°C° 0.2 mm 2 mps 751 mmHg 92%
    04:00 +19°C° 0.2 mm 2 mps 751 mmHg 93%
    05:00 +20°C° 0 mm 2 mps 752 mmHg 90%
    06:00 +21°C° 0 mm 2 mps 752 mmHg 88%
    07:00 +21°C° 0 mm 2 mps 752 mmHg 86%
    08:00 +24°C° 0.1 mm 2 mps 753 mmHg 81%
    09:00 +25°C° 0.1 mm 2 mps 753 mmHg 76%
    10:00 +26°C° 0.1 mm 2 mps 753 mmHg 71%
    11:00 +26°C° 0 mm 3 mps 754 mmHg 72%
    12:00 +26°C° 0 mm 3 mps 754 mmHg 72%
    13:00 +26°C° 0 mm 4 mps 754 mmHg 72%
    14:00 +26°C° 0.1 mm 4 mps 754 mmHg 72%
    15:00 +25°C° 0.1 mm 5 mps 754 mmHg 73%
    16:00 +25°C° 0.1 mm 5 mps 754 mmHg 73%
    17:00 +23°C° 0.4 mm 4 mps 754 mmHg 77%
    18:00 +22°C° 0.4 mm 4 mps 754 mmHg 81%
    19:00 +20°C° 0.4 mm 3 mps 754 mmHg 85%
    20:00 +20°C° 0.3 mm 3 mps 754 mmHg 86%
    21:00 +19°C° 0.3 mm 3 mps 755 mmHg 87%
    22:00 +18°C° 0.3 mm 3 mps 755 mmHg 88%
    23:00 +18°C° 0.1 mm 3 mps 755 mmHg 88%

    31 August, Saturday

    Time Temperature Precipitation Wind Pressure Humidity
    00:00 +17°C° 0.1 mm 3 mps 755 mmHg 88%
    01:00 +17°C° 0.1 mm 3 mps 755 mmHg 88%
    02:00 +16°C° 0 mm 3 mps 755 mmHg 88%
    03:00 +16°C° 0 mm 3 mps 755 mmHg 89%
    04:00 +16°C° 0 mm 3 mps 754 mmHg 89%
    05:00 +16°C° 0 mm 3 mps 754 mmHg 86%
    06:00 +17°C° 0 mm 3 mps 755 mmHg 83%
    07:00 +17°C° 0 mm 3 mps 755 mmHg 79%
    08:00 +19°C° 0 mm 3 mps 755 mmHg 74%
    09:00 +21°C° 0 mm 2 mps 755 mmHg 68%
    10:00 +23°C° 0 mm 2 mps 755 mmHg 62%
    11:00 +24°C° 0 mm 2 mps 755 mmHg 59%
    12:00 +25°C° 0 mm 2 mps 754 mmHg 56%
    13:00 +26°C° 0 mm 1 mps 754 mmHg 53%
    14:00 +26°C° 0 mm 1 mps 754 mmHg 52%
    15:00 +26°C° 0 mm 1 mps 753 mmHg 50%
    16:00 +26°C° 0 mm 1 mps 753 mmHg 48%
    17:00 +25°C° 0 mm 1 mps 753 mmHg 53%
    18:00 +23°C° 0 mm 1 mps 753 mmHg 58%
    19:00 +20°C° 0 mm 2 mps 753 mmHg 63%
    20:00 +19°C° 0 mm 2 mps 753 mmHg 63%
    21:00 +19°C° 0 mm 2 mps 753 mmHg 63%
    22:00 +18°C° 0 mm 2 mps 753 mmHg 64%
    23:00 +17°C° 0 mm 2 mps 753 mmHg 65%
    Show more